Hourly Weather Borislav

Today, 15 July, Wednesday

Time Temperature Precipitation Wind Pressure Humidity
00:00 +12°C° 0 mm 1 mps 724 mmHg 92%
01:00 +11°C° 0 mm 1 mps 724 mmHg 92%
02:00 +11°C° 0 mm 1 mps 724 mmHg 92%
03:00 +11°C° 0 mm 1 mps 724 mmHg 92%
04:00 +11°C° 0 mm 1 mps 724 mmHg 91%
05:00 +11°C° 0 mm 1 mps 724 mmHg 91%
06:00 +13°C° 0 mm 1 mps 724 mmHg 85%
07:00 +15°C° 0 mm 1 mps 724 mmHg 79%
08:00 +18°C° 0 mm 1 mps 724 mmHg 73%
09:00 +20°C° 0 mm 1 mps 724 mmHg 67%
10:00 +21°C° 0 mm 1 mps 724 mmHg 61%
11:00 +23°C° 0 mm 1 mps 724 mmHg 55%
12:00 +23°C° 0 mm 1 mps 724 mmHg 56%
13:00 +23°C° 0 mm 1 mps 724 mmHg 57%
14:00 +23°C° 0 mm 1 mps 724 mmHg 58%
15:00 +23°C° 0.2 mm 1 mps 724 mmHg 60%
16:00 +23°C° 0.2 mm 1 mps 723 mmHg 62%
17:00 +23°C° 0.2 mm 2 mps 723 mmHg 63%
18:00 +20°C° 0.1 mm 2 mps 723 mmHg 70%
19:00 +20°C° 0.1 mm 1 mps 723 mmHg 77%
20:00 +18°C° 0.1 mm 1 mps 723 mmHg 84%
21:00 +16°C° 0 mm 1 mps 723 mmHg 85%
22:00 +15°C° 0 mm 1 mps 723 mmHg 86%
23:00 +14°C° 0 mm 1 mps 723 mmHg 87%

Tomorrow, 16 July, Thursday

Time Temperature Precipitation Wind Pressure Humidity
00:00 +14°C° 0 mm 1 mps 723 mmHg 87%
01:00 +14°C° 0 mm 1 mps 723 mmHg 88%
02:00 +14°C° 0 mm 1 mps 722 mmHg 88%
03:00 +13°C° 0 mm 1 mps 722 mmHg 89%
04:00 +13°C° 0 mm 1 mps 722 mmHg 90%
05:00 +13°C° 0 mm 1 mps 722 mmHg 91%
06:00 +15°C° 0 mm 1 mps 722 mmHg 85%
07:00 +18°C° 0 mm 1 mps 722 mmHg 79%
08:00 +20°C° 0 mm 1 mps 723 mmHg 73%
09:00 +21°C° 0 mm 1 mps 723 mmHg 67%
10:00 +23°C° 0 mm 1 mps 723 mmHg 60%
11:00 +24°C° 0 mm 2 mps 723 mmHg 54%
12:00 +23°C° 0.8 mm 2 mps 723 mmHg 64%
13:00 +21°C° 0.8 mm 3 mps 723 mmHg 73%
14:00 +20°C° 0.8 mm 4 mps 722 mmHg 83%
15:00 +20°C° 1 mm 4 mps 722 mmHg 85%
16:00 +19°C° 1 mm 4 mps 722 mmHg 88%
17:00 +18°C° 1 mm 4 mps 722 mmHg 90%
18:00 +17°C° 0.2 mm 3 mps 722 mmHg 92%
19:00 +16°C° 0.2 mm 2 mps 722 mmHg 93%
20:00 +15°C° 0.2 mm 1 mps 722 mmHg 95%
21:00 +15°C° 0.1 mm 1 mps 722 mmHg 94%
22:00 +15°C° 0.1 mm 1 mps 722 mmHg 94%
23:00 +14°C° 0.1 mm 1 mps 722 mmHg 94%

Day after tomorrow, 17 July, Friday

Time Temperature Precipitation Wind Pressure Humidity
00:00 +14°C° 0.1 mm 1 mps 722 mmHg 94%
01:00 +14°C° 0.1 mm 1 mps 723 mmHg 93%
02:00 +13°C° 0.1 mm 0 mps 723 mmHg 93%
03:00 +12°C° 0.1 mm 0 mps 723 mmHg 93%
04:00 +12°C° 0.1 mm 0 mps 722 mmHg 93%
05:00 +12°C° 0.1 mm 0 mps 722 mmHg 93%
06:00 +13°C° 0 mm 0 mps 723 mmHg 91%
07:00 +14°C° 0 mm 0 mps 723 mmHg 89%
08:00 +15°C° 0 mm 0 mps 723 mmHg 87%
09:00 +18°C° 0 mm 1 mps 723 mmHg 82%
10:00 +19°C° 0 mm 1 mps 723 mmHg 78%
11:00 +19°C° 0 mm 2 mps 723 mmHg 74%
12:00 +18°C° 0.5 mm 2 mps 723 mmHg 79%
13:00 +19°C° 0.5 mm 1 mps 723 mmHg 85%
14:00 +18°C° 0.5 mm 1 mps 723 mmHg 90%
15:00 +18°C° 0.4 mm 1 mps 723 mmHg 90%
16:00 +18°C° 0.4 mm 1 mps 723 mmHg 90%
17:00 +19°C° 0.4 mm 1 mps 723 mmHg 91%
18:00 +18°C° 0.4 mm 1 mps 723 mmHg 92%
19:00 +16°C° 0.4 mm 1 mps 723 mmHg 94%
20:00 +16°C° 0.4 mm 1 mps 723 mmHg 96%
21:00 +15°C° 0.8 mm 1 mps 723 mmHg 96%
22:00 +15°C° 0.8 mm 1 mps 723 mmHg 97%
23:00 +15°C° 0.8 mm 1 mps 723 mmHg 98%

18 July, Saturday

Time Temperature Precipitation Wind Pressure Humidity
00:00 +15°C° 0.2 mm 1 mps 723 mmHg 97%
01:00 +14°C° 0.2 mm 0 mps 723 mmHg 97%
02:00 +13°C° 0.2 mm 0 mps 723 mmHg 97%
03:00 +13°C° 0.1 mm 0 mps 723 mmHg 97%
04:00 +13°C° 0.1 mm 0 mps 723 mmHg 96%
05:00 +13°C° 0.1 mm 0 mps 723 mmHg 96%
06:00 +14°C° 0 mm 0 mps 724 mmHg 94%
07:00 +16°C° 0 mm 1 mps 724 mmHg 92%
08:00 +18°C° 0 mm 1 mps 724 mmHg 90%
09:00 +19°C° 0.1 mm 1 mps 724 mmHg 86%
10:00 +20°C° 0.1 mm 1 mps 724 mmHg 83%
11:00 +20°C° 0.1 mm 1 mps 724 mmHg 79%
12:00 +20°C° 0.4 mm 1 mps 724 mmHg 83%
13:00 +20°C° 0.4 mm 1 mps 724 mmHg 86%
14:00 +18°C° 0.4 mm 2 mps 724 mmHg 90%
15:00 +19°C° 0.3 mm 1 mps 724 mmHg 91%
16:00 +19°C° 0.3 mm 1 mps 724 mmHg 91%
17:00 +19°C° 0.3 mm 1 mps 724 mmHg 92%
18:00 +18°C° 0.1 mm 1 mps 724 mmHg 93%
19:00 +18°C° 0.1 mm 1 mps 724 mmHg 94%
20:00 +16°C° 0.1 mm 1 mps 724 mmHg 96%
21:00 +16°C° 0 mm 1 mps 724 mmHg 96%
22:00 +15°C° 0 mm 1 mps 724 mmHg 96%
23:00 +14°C° 0 mm 0 mps 724 mmHg 96%

19 July, Sunday

Time Temperature Precipitation Wind Pressure Humidity
00:00 +14°C° 0 mm 0 mps 724 mmHg 96%
01:00 +13°C° 0 mm 0 mps 723 mmHg 95%
02:00 +13°C° 0 mm 0 mps 723 mmHg 95%
03:00 +13°C° 0 mm 0 mps 723 mmHg 95%
04:00 +13°C° 0 mm 0 mps 723 mmHg 96%
05:00 +13°C° 0 mm 0 mps 723 mmHg 96%
06:00 +14°C° 0 mm 0 mps 723 mmHg 95%
07:00 +15°C° 0 mm 0 mps 723 mmHg 94%
08:00 +15°C° 0 mm 0 mps 723 mmHg 93%
09:00 +16°C° 0.8 mm 0 mps 723 mmHg 93%
10:00 +18°C° 0.8 mm 1 mps 723 mmHg 93%
11:00 +18°C° 0.8 mm 1 mps 723 mmHg 94%
12:00 +18°C° 0.6 mm 1 mps 723 mmHg 94%
13:00 +18°C° 0.6 mm 1 mps 723 mmHg 94%
14:00 +18°C° 0.6 mm 1 mps 723 mmHg 95%
15:00 +18°C° 0.1 mm 1 mps 723 mmHg 94%
16:00 +18°C° 0.1 mm 1 mps 722 mmHg 93%
17:00 +17°C° 0.1 mm 0 mps 722 mmHg 92%
18:00 +16°C° 0 mm 0 mps 722 mmHg 93%
19:00 +16°C° 0 mm 0 mps 722 mmHg 95%
20:00 +15°C° 0 mm 0 mps 722 mmHg 96%
21:00 +15°C° 0 mm 0 mps 722 mmHg 96%
22:00 +14°C° 0 mm 0 mps 722 mmHg 96%
23:00 +15°C° 0 mm 1 mps 722 mmHg 96%

20 July, Monday

Time Temperature Precipitation Wind Pressure Humidity
00:00 +15°C° 0 mm 1 mps 722 mmHg 96%
01:00 +14°C° 0 mm 1 mps 722 mmHg 96%
02:00 +14°C° 0 mm 1 mps 722 mmHg 96%
03:00 +14°C° 0 mm 1 mps 722 mmHg 95%
04:00 +14°C° 0 mm 1 mps 722 mmHg 95%
05:00 +14°C° 0 mm 1 mps 722 mmHg 95%
06:00 +15°C° 0 mm 1 mps 722 mmHg 93%
07:00 +16°C° 0 mm 1 mps 722 mmHg 90%
08:00 +18°C° 0 mm 1 mps 722 mmHg 87%
09:00 +19°C° 0.1 mm 1 mps 722 mmHg 82%
10:00 +20°C° 0.1 mm 2 mps 722 mmHg 76%
11:00 +21°C° 0.1 mm 2 mps 723 mmHg 71%
12:00 +21°C° 0.6 mm 2 mps 722 mmHg 75%
13:00 +21°C° 0.6 mm 3 mps 722 mmHg 80%
14:00 +21°C° 0.6 mm 3 mps 722 mmHg 84%
15:00 +21°C° 0.5 mm 3 mps 722 mmHg 83%
16:00 +21°C° 0.5 mm 3 mps 721 mmHg 81%
17:00 +21°C° 0.5 mm 3 mps 721 mmHg 79%
18:00 +20°C° 0.6 mm 3 mps 721 mmHg 84%
19:00 +19°C° 0.6 mm 2 mps 721 mmHg 89%
20:00 +18°C° 0.6 mm 2 mps 721 mmHg 93%
21:00 +18°C° 0 mm 2 mps 721 mmHg 94%
22:00 +17°C° 0 mm 2 mps 722 mmHg 94%
23:00 +17°C° 0 mm 2 mps 722 mmHg 95%
Show more